Weather History for Puerto Plata, Dominican Republic

Change the Weather History Date:

Tuesday, May 7, 2013

  Actual Average Record
Temperature  
Mean Temperature 79 °F -  
Max Temperature 88 °F 85 °F 88 °F (2013)
Min Temperature 70 °F 73 °F 68 °F (2014)
Cooling Degree Days 14    
Growing Degree Days 29 (Base 50)    
Moisture  
Dew Point 76 °F    
Average Humidity 84    
Maximum Humidity 95    
Minimum Humidity 70    
Precipitation  
Precipitation 0.00 in - - ()
Sea Level Pressure  
Sea Level Pressure 29.99 in    
Wind  
Wind Speed 5 mph ()    
Max Wind Speed 16 mph    
Max Gust Speed -    
Visibility 6.9 miles    
Events Rain , Thunderstorm    
Averages and records for this station are not official NWS values.
T = Trace of Precipitation, MM = Missing Value Source: Averaged Metar Reports

Daily Weather History Graph

Daily Weather History Graph

Search for Another Location

Airport:

Trip Planner

Search our weather history database for the weather conditions in past years. The results will help you decide how hot, cold, wet, or windy it might be!

Date:

Astronomy

May. 07, 2013 Rise Set
Actual Time 6:09 AM AST 7:07 PM AST
Civil Twilight 5:46 AM AST 7:31 PM AST
Nautical Twilight 5:19 AM AST 7:58 PM AST
Astronomical Twilight 4:51 AM AST 8:26 PM AST
Moon 4:25 AM AST (5/7) 5:17 PM AST (5/7)
Length of Visible Light 13h 44m
Length of Day
12h 57m
Waning Crescent, 5% of the Moon is Illuminated
May 7
Waning Crescent
May 9
New
May 18
First Quarter
May 25
Full
May 31
Last Quarter

Hourly Weather History & Observations

Time (AST) Temp. Heat Index Dew Point Humidity Pressure Visibility Wind Dir Wind Speed Gust Speed Precip Events Conditions
2:00 AM 75.2 °F - 71.6 °F 89% 29.95 in 6.2 mi Calm Calm - N/A   Scattered Clouds
8:00 AM 76 °F - 73 °F 88% 29.99 in 10 mi SSE 4.5 mph - -   Partly Cloudy
8:00 AM 75.2 °F - 73.4 °F 94% 29.98 in 6.2 mi SSE 4.6 mph - N/A   Mostly Cloudy
9:00 AM 78.8 °F - 75.2 °F 89% 30.01 in 6.2 mi Calm Calm - N/A   Mostly Cloudy
10:00 AM 84.2 °F 94.1 °F 77.0 °F 79% 30.01 in 6.2 mi ENE 6.9 mph - N/A   Scattered Clouds
11:00 AM 86.0 °F 96.9 °F 77.0 °F 74% 30.01 in 6.2 mi SE 6.9 mph - N/A   Scattered Clouds
12:00 PM 86.0 °F 99.3 °F 78.8 °F 79% 30.01 in 6.2 mi ENE 12.7 mph - N/A   Mostly Cloudy
1:00 PM 86.0 °F 99.3 °F 78.8 °F 79% 29.98 in 6.2 mi East 13.8 mph - N/A   Scattered Clouds
2:00 PM 87 °F - 79 °F 70% 29.99 in 10 mi ENE 15.7 mph - -   Partly Cloudy
2:00 PM 86.0 °F 99.3 °F 78.8 °F 79% 29.98 in 6.2 mi ENE 16.1 mph - N/A   Scattered Clouds
3:00 PM 86.0 °F 96.9 °F 77.0 °F 74% 29.95 in 6.2 mi East 13.8 mph - N/A   Scattered Clouds
4:00 PM 84.2 °F 94.1 °F 77.0 °F 79% 29.95 in 6.2 mi East 9.2 mph - N/A   Scattered Clouds
5:00 PM 84.2 °F 94.1 °F 77.0 °F 79% 29.95 in 6.2 mi East 11.5 mph - N/A   Scattered Clouds
6:00 PM 80.6 °F 87.1 °F 77.0 °F 89% 29.98 in 4.3 mi ESE 9.2 mph - N/A Rain Light Rain
7:00 PM 80.6 °F 86.2 °F 75.2 °F 84% 29.98 in 6.2 mi Calm Calm - N/A   Scattered Clouds
8:00 PM 79 °F - 78 °F 95% 30.00 in 10 mi Calm Calm - -   Partly Cloudy
8:00 PM 78.8 °F - 77.0 °F 94% 29.98 in 6.2 mi Calm Calm - N/A Thunderstorm Thunderstorm
11:00 PM 77 °F - 75 °F 92% 30.05 in 10 mi Calm Calm - -   Partly Cloudy
11:00 PM 77.0 °F - 75.2 °F 94% 30.04 in 6.2 mi Calm Calm - N/A Thunderstorm Thunderstorm